Astrometry: Sar2753 C2023 10 09.58667506 19 41.418+54 39 52.69 ~7GDb 22.12GVNEOCPF52 Sar2753 C2023 10 09.59903206 19 41.391+54 39 59.45 ~7GDb 22.50GVNEOCPF52 Sar2753 C2023 10 09.61137406 19 41.214+54 40 06.19 ~7GDb 22.27GVNEOCPF52 Sar2753 KC2023 12 15.25945 05 16 04.41 +64 16 46.1 ~7GD7 20.3 GVNEOCPW16 Sar2753 KC2023 12 15.26970 05 16 03.30 +64 16 48.7 ~7GD7 20.4 GVNEOCPW16 Sar2753 KC2023 12 15.27944 05 16 02.22 +64 16 51.5 ~7GD7 20.5 GVNEOCPW16 Sar2753* C2024 07 08.89672 05 58 15.64 +70 24 52.0 ~792M 19.6 RvNEOCPK88 Sar2753 C2024 07 08.90593 05 58 16.57 +70 24 55.4 ~792M 19.6 RvNEOCPK88 Sar2753 KC2024 07 08.96236 05 58 23.46 +70 25 22.1 ~792M 19.4 RvNEOCPK88 Sar2753 KC2024 07 09.00406 05 58 28.38 +70 25 40.4 ~792M 19.5 RvNEOCPK88 Sar2753 KC2024 07 09.00938 05 58 29.03 +70 25 42.3 ~792M 19.4 RvNEOCPK88 Sar2753 KC2024 07 09.01471 05 58 29.60 +70 25 45.5 ~792M 19.2 RvNEOCPK88 Sar2753 KC2024 07 09.02061 05 58 30.32 +70 25 48.0 ~792M 19.3 RvNEOCPK88 Sar2753 KC2024 07 09.02594 05 58 31.00 +70 25 50.6 ~792M 19.5 RvNEOCPK88 Sar2753 KC2024 07 09.03144 05 58 31.67 +70 25 52.7 ~792M 19.5 RvNEOCPK88 Sar2753 KC2024 07 09.84786 06 00 08.71 +70 32 01.3 ~79Mb 18.8 VZNEOCPM38 Sar2753 KC2024 07 09.87162 06 00 11.35 +70 32 11.5 ~79Mb 19.3 VZNEOCPM38 Sar2753 KC2024 07 09.88003 06 00 12.33 +70 32 16.7 ~79M7 19.2 RoNEOCPK88 Sar2753 KC2024 07 09.88802 06 00 13.34 +70 32 20.4 ~79M7 19.1 RoNEOCPK88 Sar2753 KC2024 07 09.90471 06 00 15.46 +70 32 28.3 ~79M7 19.1 RoNEOCPK88 Sar2753 KB2024 07 09.94581 06 00 20.23 +70 32 46.1 ~7AHb 19.8 GVNEOCP204 Sar2753 KB2024 07 09.95707 06 00 21.66 +70 32 51.1 ~7AHb VNEOCP204 Sar2753 KB2024 07 09.96860 06 00 23.00 +70 32 56.7 ~7AHb VNEOCP204 Sar2753 KC2024 07 09.98113 06 00 24.56 +70 33 02.7 ~7AFM 19.5 GVNEOCPG00 Sar2753 KC2024 07 09.98565 06 00 25.05 +70 33 05.3 ~7AFM 19.6 GVNEOCPG00 Sar2753 KC2024 07 09.99067 06 00 25.82 +70 33 06.8 ~7AFM 19.9 GVNEOCPG00 Sar2753 KC2024 07 10.00956 06 00 27.97 +70 33 15.6 ~7A17 19.2 RoNEOCPK88 Sar2753 KC2024 07 10.01489 06 00 28.59 +70 33 17.6 ~7A17 19.2 RoNEOCPK88 Sar2753 KB2024 07 10.02419 06 00 29.78 +70 33 21.9 ~7A1q 20.2 VZNEOCPM45 Sar2753 KC2024 07 10.02688 06 00 30.10 +70 33 23.2 ~7A17 19.4 RoNEOCPK88 Sar2753 KB2024 07 10.02889 06 00 30.24 +70 33 24.3 ~7A1q 20.0 VZNEOCPM45 Sar2753 KB2024 07 10.03196 06 00 30.64 +70 33 25.9 ~7A1q ZNEOCPM45 Sar2753 KB2024 07 10.03303 06 00 30.80 +70 33 25.7 ~7A1q 19.9 VZNEOCPM45 Sar2753 KC2024 07 10.04653206 00 32.46 +70 33 32.3 ~7A1q 19.9 GVNEOCPL01 Sar2753 KC2024 07 10.05521506 00 33.46 +70 33 36.3 ~7A1q 20.3 GVNEOCPL01 Sar2753 KC2024 07 10.06030906 00 34.05 +70 33 38.8 ~7A1q 19.9 GVNEOCPL01 Sar2753 7B2024 07 10.13353606 00 42.768+70 34 12.50 ~7A77 19.6 GVNEOCPZ28 Sar2753 7B2024 07 10.14323506 00 43.882+70 34 16.75 ~7A77 19.2 GVNEOCPZ28 Sar2753 0C2024 07 10.43350 06 01 18.84 +70 36 28.4 ~7D4q VNEOCPU94 Sar2753 0C2024 07 10.43845 06 01 19.36 +70 36 30.6 ~7D4q 20.4 GVNEOCPU94 Sar2753 KC2024 07 10.86421 06 02 10.33 +70 39 45.2 ~7BB7 20.2 VZNEOCPM38 Sar2753 KC2024 07 10.87613 06 02 11.77 +70 39 50.9 ~7AMb 19.8 RqNEOCPL27 Sar2753 KC2024 07 10.88168 06 02 12.58 +70 39 53.0 ~7BB7 19.6 VZNEOCPM38 Sar2753 KC2024 07 10.88205 06 02 12.47 +70 39 52.9 ~7AMM 19.6 RoNEOCPK88 Sar2753 KC2024 07 10.88275 06 02 12.44 +70 39 54.4 ~7AMb 19.3 VqNEOCP126 Sar2753 KC2024 07 10.89004 06 02 13.46 +70 39 56.3 ~7AMM 19.5 RoNEOCPK88 Sar2753 KC2024 07 10.89088 06 02 13.58 +70 39 57.2 ~7AMb 19.6 RqNEOCPL27 Sar2753 KC2024 07 10.89422 06 02 13.70 +70 39 57.7 ~7AMb 19.6 VqNEOCP126 Sar2753 KC2024 07 10.89426 06 02 13.88 +70 39 58.0 ~7AMb 19.5 VqNEOCP126 Sar2753 KC2024 07 10.90562 06 02 15.39 +70 40 03.2 ~7AMb 19.9 RqNEOCPL27 Sar2753 KC2024 07 10.90573 06 02 15.13 +70 40 02.4 ~7AMb 19.4 VqNEOCP126 Sar2753 KC2024 07 10.99569 06 02 26.23 +70 40 45.0 ~7B0q 19.3 RoNEOCPK88 Sar2753 KC2024 07 10.99758806 02 26.494+70 40 45.52 ~7B0b 19.9 GVNEOCPJ95 Sar2753 KC2024 07 11.00368 06 02 27.24 +70 40 48.2 ~7B0q 19.6 RoNEOCPK88 Sar2753 KC2024 07 11.00459106 02 27.211+70 40 48.65 ~7B0b 19.5 GVNEOCPJ95 Sar2753 KC2024 07 11.01006 06 02 28.06 +70 40 51.2 ~7B2b 20.0 GVNEOCPK51 Sar2753 KC2024 07 11.01193 06 02 28.29 +70 40 51.9 ~7B0q 19.4 RoNEOCPK88 Sar2753 KC2024 07 11.01649 06 02 28.82 +70 40 54.2 ~7B2b 19.9 GVNEOCPK51 Sar2753 KC2024 07 11.04079 06 02 31.79 +70 41 05.6 ~7B2b 19.7 GVNEOCPK51 Sar2753 KC2024 07 11.04507 06 02 32.30 +70 41 07.5 ~7B2b 19.8 GVNEOCPK51 Sar2753 KC2024 07 11.90982 06 04 16.85 +70 47 43.4 ~7C07 19.4 RoNEOCPK88 Sar2753 KC2024 07 11.92527 06 04 18.87 +70 47 51.2 ~7C07 19.5 RoNEOCPK88 Sar2753 KC2024 07 11.94028 06 04 20.64 +70 47 57.7 ~7C07 19.6 RoNEOCPK88 Sar2753 KC2024 07 11.94827 06 04 21.68 +70 48 01.3 ~7C07 19.6 RoNEOCPK88 Sar2753 KC2024 07 12.88147 06 06 15.88 +70 55 12.8 ~7DJM 19.6 VZNEOCPM38 Sar2753 KC2024 07 12.92767 06 06 21.50 +70 55 33.7 ~7D47 19.5 RoNEOCPK88 Sar2753 KC2024 07 12.93324 06 06 22.14 +70 55 36.2 ~7DJM 19.2 VZNEOCPM38 Sar2753 KC2024 07 12.93566 06 06 22.44 +70 55 37.3 ~7D47 19.5 RoNEOCPK88 Sar2753 KC2024 07 12.94597 06 06 23.84 +70 55 41.5 ~7D47 19.3 RoNEOCPK88 Sar2753 KC2024 07 12.95395 06 06 24.87 +70 55 46.0 ~7D6M oNEOCPK88 Sar2753 KC2024 07 12.96449 06 06 26.05 +70 55 51.0 ~7D6M 19.2 RoNEOCPK88 Sar2753 KC2024 07 12.97795 06 06 27.79 +70 55 56.8 ~7D6M 19.0 RoNEOCPK88 Sar2753 KC2024 07 12.98312306 06 28.24 +70 55 59.7 ~7D37 UNEOCP104 Sar2753 KC2024 07 12.98594 06 06 28.77 +70 56 00.4 ~7D6M 19.6 RoNEOCPK88 Sar2753 KC2024 07 12.99471 06 06 29.82 +70 56 05.2 ~7D6M 19.6 RoNEOCPK88 Sar2753 KC2024 07 12.99642706 06 30.11 +70 56 06.1 ~7D37 19.1 GUNEOCP104 Sar2753 KC2024 07 13.00538 06 06 31.20 +70 56 09.2 ~7D6M 19.5 RoNEOCPK88 Sar2753 KC2024 07 13.94494 06 08 27.30 +71 03 25.6 ~7E0b oNEOCPK88 Sar2753 KC2024 07 13.95617 06 08 28.60 +71 03 31.5 ~7E0b oNEOCPK88 Sar2753 KC2024 07 13.96432 06 08 29.72 +71 03 34.9 ~7E0b 19.3 RoNEOCPK88 Sar2753 KC2024 07 14.88452 06 10 24.49 +71 10 44.8 ~7EM7 19.9 GXNEOCPG02 Sar2753 KC2024 07 14.89113 06 10 25.46 +71 10 47.6 ~7EN7 19.2 RoNEOCPK88 Sar2753 KC2024 07 14.89664 06 10 26.06 +71 10 50.5 ~7EM7 19.7 GXNEOCPG02 Sar2753 KC2024 07 14.90043 06 10 26.61 +71 10 52.3 ~7EN7 19.4 RoNEOCPK88 Sar2753 KC2024 07 14.92684 06 10 30.00 +71 11 04.9 ~7EN7 19.1 RoNEOCPK88 Sar2753 KC2024 07 14.96558 06 10 34.96 +71 11 22.2 ~7FMM 19.7 GVNEOCP204 Sar2753 KC2024 07 15.02844 06 10 42.95 +71 11 51.8 ~7FMM 19.4 GVNEOCP204 Sar2753 7C2024 07 15.12239206 10 54.816+71 12 36.81 ~7F6b 19.1 GVNEOCPZ84 Sar2753 7C2024 07 15.12529606 10 55.129+71 12 38.16 ~7F6b 19.2 GVNEOCPZ84 Sar2753 7C2024 07 15.12820106 10 55.509+71 12 39.59 ~7F6b 19.6 GVNEOCPZ84 Sar2753 KC2024 07 15.93138 06 12 36.89 +71 18 56.9 ~7G17 19.4 RoNEOCPK88 Sar2753 KC2024 07 15.94399 06 12 38.34 +71 19 02.9 ~7G17 19.5 RoNEOCPK88 Sar2753 KB2024 07 16.00414 06 12 46.21 +71 19 31.1 ~7G6q 19.6 GXNEOCPG00 Sar2753 KB2024 07 16.00633 06 12 46.39 +71 19 32.5 ~7G0q 19.9 VZNEOCPM45 Sar2753 KB2024 07 16.01077 06 12 47.01 +71 19 34.4 ~7G0q 19.9 VZNEOCPM45 Sar2753 KB2024 07 16.01124 06 12 47.05 +71 19 34.2 ~7G6q 19.3 GXNEOCPG00 Sar2753 KB2024 07 16.01833 06 12 48.02 +71 19 38.3 ~7G6q 19.3 GXNEOCPG00 Sar2753 KC2024 07 17.89554406 16 48.732+71 34 28.24 ~7HN7 18.0 GVNEOCPL02 Sar2753 KC2024 07 17.90350106 16 49.817+71 34 35.08 ~7HN7x19.2 GVNEOCPL02 Sar2753 KC2024 07 17.91119206 16 50.681+71 34 36.80 ~7HN7 18.4 GVNEOCPL02 Station data: (104) San Marcello Pistoiese (N44.064178 E10.803750) Italy. Observers P. Bacci, M. Maestripieri. Measurers P. Bacci, L. Tesi, G. Fagioli. 0.60-m reflector + CCD. (126) Monte Viseggi (N44.133167 E9.790300) Italy. 0.40-m f/5 reflector. (204) Schiaparelli Observatory (N45.868292 E8.769720) Italy. Observer L. Buzzi. 0.60-m f/4.64 Newtonian + CCD0.84-m f/3.5 reflector + CCD. (F52) Pan-STARRS 2, Haleakala (N20.707382 W156.255910) US/Hawaii. Observers J. Bulger, T. Dukes, T. Lowe, A. Schultz, M. Willman. Measurers K. Chambers, S. Chastel, T. de Boer, L. Denneau, J. Fairlamb, H. Flewelling, M. Huber, C.-C. Lin, E. Magnier, Y. Ramanjooloo, R. Wainscoat, R. Weryk. 1.8-m Ritchey-Chrétien + CCD. (G00) AZM Martinsberg, Oed (N48.381561 E15.126000) Austria. Observers M. Jaeger, E. Prosperi, S. Prosperi. Measurer M. Jaeger. 0.28-m f/2.2 reflector + CCD. (G02) KYSUCE Observatory, Kysucke Nove Mesto (N49.307313 E18.765390) Slovakia. Observer M. Urbanik. 0.40-m f/4.4 reflector + CCD. (J95) Great Shefford (N51.474969 W1.447003) UK/England. Observer P. Birtwhistle. 0.41-m f/6.3 Schmidt-Cassegrain + CCD. (K51) Osservatorio del Celado, Castello Tesino (N46.029480 E11.657890) Italy. Observers G. Favero, R. Furgoni. Measurer R. Furgoni. 0.80-m f/4 reflector + CCD. (K88) GINOP-KHK, Piszkéstető (N47.917453 E19.893670) Hungary. Observer K. Sárneczky. 0.60-m Schmidt + CCD. (L01) Višnjan Observatory, Tičan (N45.290897 E13.749300) Croatia. Observers K. Korlević, D. Pujagic, V. Dobos. Measurers D. Pujagic, K. Korlević. 1.0-m f/2.9 reflector + CCD. (L02) NOAK Observatory, Stavraki (N39.652452 E20.816580) Greece. Observer N. Sioulas. 0.25-m f/4.7 reflector + CCD. (L27) 29PREMOTE Observatory, Dauban (N43.999832 E5.647040) France. Observer J.-F. Soulier. 0.20-m f/4 Newtonian reflector + CCD. (M38) Harsona Observatory, Nyiregyhaza (N47.945815 E21.767190). Observer T. Elek. 0.20-m f/4 reflector + CCD. (M45) Starhopper Observatory, Sfantu Gheorghe (N45.865582 E25.768900) Romania. Observer F. Ursache. 0.41-m f/7.5 reflector + CMO. (U94) iTelescope Observatory, Beryl Junction (N37.737780 W113.697500) US/Utah. Observer H. Sato. 0.51-m f/4.5 Corrected Dall-Kirkham + CCD0.51-m f/6.8 astrograph + f/4.5 focal reducer + CCD. (W16) Pleasant Groves Observatory (N34.711888 W86.231310) US/Alabama. Observer M. Holbrook. 0.36-m reflector + CCD. (Z28) Northern Skygems Observatory, Nerpio (N38.165716 W2.326690) Spain. Observers L. Buzzi, L. Demetz. Measurers L. Buzzi, G. Galli, A. Aletti. 0.50-m f/6.9 astrograph + CCD. (Z84) Calar Alto-Schmidt (N37.224046 W2.548210) Spain. Observer F. Ocaña. Measurers E. Schwab, D. Koschny, M. Micheli. 0.8-m f/3 Schmidt + CCD. Orbital elements: Sar2753 Perihelion 2025 Apr 11.19899 +/- 0.0244 TT = 4:46:32 (JD 2460776.69899) Epoch 2024 Jul 17.0 TT = JDT 2460508.5 Sa: 0.2295 AutoNEOCP q 5.01534254 +/- 0.000277 (J2000 ecliptic) H 11.75 G 0.15 Peri. 86.84920 +/- 0.0053 z -0.0001137138 +/- 9.15e-6 Node 82.60913 +/- 0.00019 e 1.0005703 +/- 4.59e-5 Incl. 88.72930 +/- 0.00027 99 of 100 observations 2023 Oct. 9-2024 July 17; mean residual 0".41
